1494277200.2,65086,15.13,72798.0,-5.29,-5.93,-5.85,0,*54
1494277201.45,65087,15.13,72806.8,-5.29,-5.93,-5.93,0,*52
1494277202.73,65088,15.13,72802.0,-5.27,-5.89,-5.93,0,*58
1494277203.95,65089,15.13,72802.8,-5.27,-6.05,-6.05,0,*52
1494277205.2,65090,15.13,72802.3,-5.27,-6.01,-5.93,0,*52
1494277206.46,65091,15.13,72804.8,-5.29,-5.93,-5.93,0,*55
1494277207.66,65092,15.13,72786.5,-5.29,-6.09,-6.09,0,*56
1494277208.86,65093,15.13,72790.5,-5.29,-6.05,-6.05,0,*57
1494277210.05,65094,15.13,72782.5,-5.29,-6.05,-6.05,0,*50
1494277211.28,65095,15.13,72792.0,-5.25,-5.93,-6.01,0,*55
1494277212.56,65096,15.13,72796.3,-5.27,-5.93,-5.93,0,*5C
1494277213.81,65097,15.13,72798.3,-5.27,-6.01,-5.93,0,*55
1494277215.09,65098,15.13,72812.5,-5.27,-5.93,-5.89,0,*59
1494277216.37,65099,15.13,72810.0,-5.27,-5.93,-5.93,0,*53
1494277217.64,65100,15.13,72806.3,-5.27,-5.89,-5.89,0,*52
1494277218.93,65101,15.13,72804.3,-5.27,-5.93,-5.89,0,*58
1494277220.2,65102,15.13,72802.5,-5.27,-5.89,-5.93,0,*5B
1494277221.48,65103,15.13,72802.5,-5.27,-5.89,-5.93,0,*5A
1494277222.75,65104,15.13,72802.3,-5.27,-5.89,-5.89,0,*56
1494277224.03,65105,15.13,72806.8,-5.27,-5.89,-5.89,0,*57
1494277225.25,65106,15.13,72802.0,-5.27,-6.05,-6.05,0,*54
1494277226.47,65107,15.13,72806.3,-5.27,-6.05,-6.05,0,*55
1494277227.68,65108,15.13,72800.8,-5.27,-6.05,-6.01,0,*5E
1494277228.9,65109,15.13,72806.8,-5.27,-6.05,-6.05,0,*5B
1494277230.09,65110,15.13,72804.3,-5.25,-6.05,-6.05,0,*51
1494277231.34,65111,15.13,72802.5,-5.27,-6.01,-5.93,0,*5A
1494277232.62,65112,15.13,72808.0,-5.27,-5.89,-5.89,0,*51
1494277233.89,65113,15.13,72808.5,-5.27,-5.89,-5.77,0,*51
1494277235.17,65114,15.13,72800.8,-5.27,-5.89,-5.89,0,*57
1494277236.42,65115,15.13,72806.5,-5.25,-5.89,-5.89,0,*54
1494277237.7,65116,15.13,72806.0,-5.27,-5.89,-5.89,0,*55
1494277238.98,65117,15.13,72810.3,-5.27,-5.89,-5.81,0,*5C
1494277240.25,65118,15.13,72808.5,-5.27,-5.89,-5.81,0,*53
1494277241.53,65119,15.13,72810.0,-5.27,-5.89,-5.89,0,*5A
1494277242.79,65120,15.13,72810.5,-5.25,-5.93,-5.93,0,*52
1494277244.04,65121,15.13,72814.3,-5.25,-5.93,-5.89,0,*58
1494277245.3,65122,15.13,72812.8,-5.25,-5.89,-5.81,0,*58
1494277246.58,65123,15.13,72810.5,-5.27,-5.93,-5.89,0,*58
1494277247.83,65124,15.13,72806.5,-5.25,-5.93,-5.89,0,*5D
1494277249.09,65125,15.13,72804.5,-5.25,-5.93,-5.89,0,*5C
1494277250.35,65126,15.13,72812.0,-5.25,-5.93,-5.89,0,*5F
1494277251.54,65127,15.13,72806.5,-5.25,-6.05,-6.05,0,*55
1494277252.8,65128,15.13,72796.0,-5.25,-6.23,-6.19,0,*53
1494277254.04,65129,15.13,72798.5,-5.25,-6.23,-6.23,0,*5B
1494277255.24,65130,15.13,72798.3,-5.25,-6.09,-6.09,0,*53
1494277256.44,65131,15.13,72802.3,-5.25,-6.01,-6.05,0,*56
1494277257.66,65132,15.13,72802.5,-5.25,-6.01,-5.93,0,*59
1494277258.91,65133,15.13,72802.3,-5.27,-6.05,-5.89,0,*55
1494277260.14,65134,15.13,72800.3,-5.25,-6.01,-5.89,0,*54
1494277261.37,65135,15.13,72800.5,-5.25,-6.01,-5.93,0,*5E
1494277262.59,65136,15.13,72798.5,-5.27,-6.05,-6.05,0,*57
1494277263.79,65137,15.13,72802.5,-5.25,-6.09,-6.09,0,*54
1494277264.98,65138,15.13,72796.5,-5.25,-6.09,-6.09,0,*5B
1494277266.18,65139,15.13,72796.0,-5.25,-6.05,-6.05,0,*5A
1494277267.37,65140,15.13,72798.5,-5.25,-6.05,-6.05,0,*54
1494277268.57,65141,15.13,72796.5,-5.25,-6.01,-6.01,0,*55
1494277269.79,65142,15.13,72798.0,-5.27,-6.01,-6.01,0,*54
1494277271.07,65143,15.13,72798.5,-5.27,-5.93,-5.93,0,*55
1494277272.35,65144,15.13,72798.3,-5.27,-5.93,-5.89,0,*59
1494277273.63,65145,15.13,72792.5,-5.27,-5.93,-5.93,0,*53
1494277274.82,65146,15.13,72792.0,-5.25,-6.05,-6.05,0,*52
1494277276.04,65147,15.13,72798.3,-5.27,-6.05,-6.05,0,*51
1494277277.23,65148,15.13,72798.8,-5.25,-6.05,-6.05,0,*5C
1494277278.45,65149,15.13,72788.0,-5.27,-6.05,-6.05,0,*5F
1494277279.67,65150,15.13,72792.5,-5.27,-6.01,-6.05,0,*53
1494277280.89,65151,15.13,72792.0,-5.27,-6.05,-6.01,0,*52
1494277282.14,65152,15.13,72794.8,-5.25,-5.93,-5.93,0,*57
1494277283.42,65153,15.13,72792.5,-5.27,-5.93,-5.89,0,*5F
1494277284.68,65154,15.13,72798.5,-5.25,-5.93,-5.93,0,*51
1494277285.94,65155,15.13,72796.5,-5.25,-5.93,-5.89,0,*5B
1494277287.19,65156,15.13,72794.8,-5.25,-5.93,-5.89,0,*58
1494277288.45,65157,15.13,72798.3,-5.25,-5.93,-5.89,0,*59
1494277289.71,65158,15.13,72800.8,-5.25,-5.93,-5.93,0,*5D
1494277290.96,65159,15.13,72798.0,-5.25,-5.89,-5.89,0,*5C
1494277292.22,65160,15.13,72798.8,-5.25,-5.89,-5.89,0,*56
1494277293.47,65161,15.13,72796.8,-5.25,-5.89,-5.81,0,*5F
1494277294.72,65162,15.13,72798.8,-5.25,-5.89,-5.81,0,*5C
1494277295.98,65163,15.13,72800.8,-5.25,-5.93,-5.93,0,*55
1494277297.23,65164,15.13,72798.0,-5.25,-5.89,-5.81,0,*5A
1494277298.48,65165,15.13,72798.5,-5.25,-5.89,-5.93,0,*58
1494277299.71,65166,15.13,72802.8,-5.25,-5.93,-6.01,0,*58
1494277300.9,65167,15.13,72796.8,-5.25,-6.05,-6.05,0,*51
1494277302.12,65168,15.13,72798.5,-5.27,-6.05,-6.05,0,*5C
1494277303.31,65169,15.13,72796.3,-5.25,-6.05,-6.05,0,*5F
1494277304.51,65170,15.13,72796.5,-5.25,-6.05,-6.01,0,*53
1494277305.7,65171,15.13,72800.3,-5.25,-6.05,-6.05,0,*56
1494277306.89,65172,15.13,72800.0,-5.25,-6.05,-6.01,0,*51
1494277308.09,65173,15.13,72796.8,-5.25,-6.05,-6.05,0,*54
1494277309.28,65174,15.13,72792.5,-5.25,-6.05,-6.05,0,*53
1494277310.5,65175,15.13,72796.3,-5.27,-6.05,-6.05,0,*50
1494277311.72,65176,15.13,72798.5,-5.25,-6.01,-5.93,0,*59
1494277312.92,65177,15.13,72796.3,-5.25,-6.01,-6.01,0,*50
1494277314.17,65178,15.13,72800.3,-5.27,-6.01,-5.93,0,*55
1494277315.43,65179,15.13,72798.3,-5.25,-5.93,-5.93,0,*5E
1494277316.68,65180,15.13,72792.8,-5.25,-5.93,-5.93,0,*58
1494277317.93,65181,15.13,72792.0,-5.27,-6.01,-5.93,0,*53
1494277319.16,65182,15.13,72792.8,-5.25,-6.01,-5.93,0,*52
1494277320.36,65183,15.13,72794.3,-5.25,-6.01,-6.05,0,*5F
1494277321.58,65184,15.13,72796.0,-5.27,-6.05,-6.01,0,*5A
1494277322.77,65185,15.13,72794.0,-5.25,-6.05,-6.05,0,*5D
1494277323.97,65186,15.13,72794.5,-5.25,-6.01,-6.05,0,*5A
1494277325.16,65187,15.13,72796.8,-5.25,-6.05,-6.05,0,*5F
1494277326.36,65188,15.13,72796.8,-5.25,-6.05,-6.01,0,*54
1494277327.55,65189,15.13,72790.8,-5.25,-6.05,-6.05,0,*51
1494277328.77,65190,15.13,72792.5,-5.27,-6.05,-6.01,0,*5F
1494277329.96,65191,15.13,72794.5,-5.25,-6.01,-6.01,0,*58
1494277331.22,65192,15.13,72794.8,-5.25,-5.89,-5.93,0,*50
1494277332.47,65193,15.13,72796.8,-5.25,-5.93,-5.93,0,*5A
1494277333.73,65194,15.13,72798.8,-5.25,-5.81,-5.89,0,*55
1494277334.98,65195,15.13,72798.8,-5.25,-5.89,-5.89,0,*5C
1494277336.23,65196,15.13,72802.8,-5.25,-5.89,-5.81,0,*57
1494277337.49,65197,15.13,72802.3,-5.25,-5.89,-5.81,0,*56
1494277338.74,65198,15.13,72800.8,-5.25,-5.89,-5.89,0,*51
1494277339.94,65199,15.13,72796.8,-5.21,-6.01,-6.01,0,*54
1494277341.13,65200,15.13,72796.8,-5.25,-6.05,-6.01,0,*57
1494277342.36,65201,15.13,72788.0,-5.25,-6.01,-5.89,0,*51
1494277343.59,65202,15.13,72788.8,-5.25,-6.01,-5.93,0,*59
1494277344.79,65203,15.13,72792.8,-5.21,-5.97,-6.01,0,*58
1494277346.04,65204,15.13,72792.5,-5.21,-5.89,-5.85,0,*5F
1494277347.3,65205,15.13,72788.8,-5.21,-5.89,-5.85,0,*5E
1494277348.5,65206,15.13,72786.5,-5.21,-5.97,-6.01,0,*5D
1494277349.69,65207,15.13,72790.0,-5.21,-5.97,-5.97,0,*50
1494277350.92,65208,15.13,72790.8,-5.25,-6.09,-6.19,0,*5A
1494277352.2,65209,15.13,72784.5,-5.27,-6.19,-6.19,0,*58
1494277353.43,65210,15.13,72790.3,-5.25,-6.19,-6.09,0,*53
1494277354.62,65211,15.13,72786.3,-5.21,-6.05,-6.05,0,*57
1494277355.81,65212,15.13,72780.8,-5.25,-6.05,-6.05,0,*50
1494277357.01,65213,15.13,72786.0,-5.25,-6.01,-6.01,0,*51
1494277358.27,65214,15.13,72790.3,-5.25,-5.93,-5.93,0,*56
1494277359.52,65215,15.13,72792.3,-5.25,-5.93,-5.89,0,*5C
1494277360.78,65216,15.13,72798.5,-5.25,-5.89,-5.89,0,*54
1494277362.04,65217,15.13,72800.3,-5.25,-5.93,-5.89,0,*5E
1494277363.29,65218,15.13,72788.5,-5.25,-5.93,-5.89,0,*51
1494277364.55,65219,15.13,72788.8,-5.21,-5.89,-5.89,0,*5F
1494277365.81,65220,15.13,72796.3,-5.21,-5.85,-5.85,0,*55
1494277367.06,65221,15.13,72796.0,-5.21,-5.85,-5.77,0,*59
1494277368.31,65222,15.13,72798.8,-5.25,-5.89,-5.89,0,*53
1494277369.56,65223,15.13,72802.3,-5.25,-5.89,-5.81,0,*5A
1494277370.85,65224,15.13,72798.0,-5.19,-5.85,-5.85,0,*5A
1494277372.1,65225,15.13,72796.5,-5.21,-5.89,-5.85,0,*5C
1494277373.36,65226,15.13,72798.3,-5.21,-5.89,-5.85,0,*5F
1494277374.61,65227,15.13,72796.3,-5.21,-5.89,-5.89,0,*52
1494277375.84,65228,15.13,72790.0,-5.21,-5.97,-5.89,0,*52
1494277377.1,65229,15.13,72790.3,-5.21,-5.89,-5.85,0,*50
1494277378.35,65230,15.13,72784.8,-5.21,-5.89,-5.85,0,*58
1494277379.61,65231,15.13,72790.0,-5.21,-5.89,-5.85,0,*59
1494277380.86,65232,15.13,72792.5,-5.21,-5.89,-5.89,0,*56
1494277382.09,65233,15.13,72794.3,-5.21,-5.97,-5.89,0,*58
1494277383.34,65234,15.13,72794.3,-5.21,-5.89,-5.85,0,*5C
1494277384.6,65235,15.13,72800.3,-5.21,-5.89,-5.85,0,*5D
1494277385.85,65236,15.13,72802.5,-5.21,-5.89,-5.77,0,*53
1494277387.1,65237,15.13,72800.3,-5.21,-5.89,-5.77,0,*52
1494277388.35,65238,15.13,72804.3,-5.21,-5.85,-5.77,0,*51
1494277389.6,65239,15.13,72802.3,-5.21,-5.89,-5.77,0,*5C
1494277390.85,65240,15.19,72806.3,-5.21,-5.85,-5.77,0,*5E
1494277392.12,65241,15.13,72802.3,-5.19,-5.77,-5.73,0,*5D
1494277393.38,65242,15.13,72806.8,-5.19,-5.73,-5.73,0,*5A
1494277394.65,65243,15.13,72800.0,-5.19,-5.77,-5.77,0,*5B
1494277395.93,65244,15.13,72802.5,-5.19,-5.89,-5.77,0,*5D
1494277397.2,65245,15.13,72806.5,-5.19,-5.89,-5.77,0,*5C
1494277398.47,65246,15.13,72804.5,-5.19,-5.77,-5.89,0,*5F
1494277399.75,65247,15.13,72804.5,-5.19,-5.85,-5.89,0,*53
1494277401.01,65248,15.13,72808.5,-5.21,-5.77,-5.85,0,*56
1494277402.28,65249,15.13,72804.3,-5.19,-5.77,-5.77,0,*51
1494277403.55,65250,15.13,72810.8,-5.19,-5.77,-5.77,0,*59
1494277404.83,65251,15.13,72810.0,-5.19,-5.89,-5.89,0,*58
1494277406.1,65252,15.13,72810.8,-5.19,-5.89,-5.89,0,*5B
1494277407.38,65253,15.13,72804.3,-5.19,-5.89,-5.77,0,*5B
1494277408.65,65254,15.13,72806.3,-5.19,-5.85,-5.77,0,*50
1494277409.93,65255,15.13,72804.0,-5.19,-5.85,-5.77,0,*51
1494277411.21,65256,15.13,72796.0,-5.19,-5.85,-5.89,0,*53
1494277412.49,65257,15.13,72802.8,-5.19,-5.89,-5.85,0,*52
1494277413.74,65258,15.13,72802.8,-5.21,-5.85,-5.77,0,*57
1494277414.99,65259,15.13,72804.3,-5.17,-5.85,-5.81,0,*5A
1494277416.27,65260,15.13,72802.0,-5.19,-5.77,-5.85,0,*57
1494277417.55,65261,15.13,72804.0,-5.19,-5.85,-5.85,0,*5B
1494277418.8,65262,15.13,72800.8,-5.19,-5.97,-5.85,0,*5B
1494277420.08,65263,15.13,72800.0,-5.19,-5.89,-5.85,0,*55
1494277421.36,65264,15.13,72798.3,-5.19,-5.85,-5.77,0,*53
1494277422.64,65265,15.13,72802.5,-5.19,-5.85,-5.85,0,*5F
1494277423.92,65266,15.13,72804.5,-5.19,-5.85,-5.85,0,*5C
1494277425.2,65267,15.13,72806.3,-5.19,-5.89,-5.85,0,*51
1494277426.48,65268,15.13,72798.3,-5.19,-5.85,-5.85,0,*52
1494277427.7,65269,15.13,72794.0,-5.19,-5.97,-5.97,0,*53
1494277428.95,65270,15.13,72800.0,-5.19,-5.97,-5.85,0,*58
1494277430.23,65271,15.13,72802.8,-5.19,-5.89,-5.85,0,*56
1494277431.51,65272,15.13,72806.3,-5.19,-5.89,-5.85,0,*55
1494277432.78,65273,15.13,72804.3,-5.19,-5.89,-5.89,0,*58
1494277434.07,65274,15.13,72806.5,-5.19,-5.85,-5.85,0,*5F
1494277435.35,65275,15.13,72808.3,-5.19,-5.85,-5.85,0,*5E
1494277436.62,65276,15.13,72810.5,-5.19,-5.89,-5.77,0,*5C
1494277437.89,65277,15.13,72810.8,-5.19,-5.85,-5.77,0,*51
1494277439.17,65278,15.13,72808.3,-5.19,-5.89,-5.85,0,*5F
1494277440.45,65279,15.13,72806.5,-5.19,-5.89,-5.85,0,*5E
1494277441.73,65280,15.13,72806.5,-5.19,-5.89,-5.89,0,*54
1494277442.98,65281,15.13,72808.0,-5.17,-5.93,-5.93,0,*5B
1494277444.24,65282,15.13,72806.0,-5.17,-5.85,-5.85,0,*58
1494277445.46,65283,15.13,72806.8,-5.17,-5.97,-5.85,0,*5A
1494277446.74,65284,15.13,72806.3,-5.19,-5.89,-5.89,0,*50
1494277448.02,65285,15.13,72808.8,-5.19,-5.89,-5.89,0,*51
1494277449.24,65286,15.13,72806.8,-5.19,-5.97,-5.97,0,*52
1494277450.46,65287,15.13,72808.5,-5.19,-6.01,-6.01,0,*53
1494277451.67,65288,15.13,72804.8,-5.19,-6.05,-6.13,0,*5B
1494277452.89,65289,15.13,72804.0,-5.19,-6.05,-6.13,0,*5A
1494277454.11,65290,15.13,72800.5,-5.19,-6.13,-6.05,0,*52
1494277455.3,65291,15.13,72802.3,-5.21,-6.05,-6.05,0,*5F
1494277456.5,65292,15.13,72802.8,-5.21,-6.01,-6.01,0,*5C
1494277457.72,65293,15.13,72800.0,-5.19,-6.01,-6.05,0,*52
1494277458.94,65294,15.13,72800.8,-5.19,-5.97,-6.01,0,*5D
1494277460.19,65295,15.13,72808.0,-5.19,-5.89,-5.97,0,*5F
1494277461.46,65296,15.13,72806.0,-5.19,-5.89,-5.89,0,*53
1494277462.72,65297,15.13,72808.3,-5.21,-5.89,-5.85,0,*55
1494277464.0,65298,15.13,72810.3,-5.19,-5.85,-5.85,0,*5D
1494277465.28,65299,15.13,72810.8,-5.19,-5.89,-5.89,0,*5C
1494277466.56,65300,15.13,72804.0,-5.19,-5.85,-5.85,0,*5D
1494277467.79,65301,15.13,72806.8,-5.21,-6.01,-5.89,0,*54
1494277468.99,65302,15.13,72808.5,-5.21,-5.97,-5.97,0,*54
1494277470.27,65303,15.13,72812.8,-5.19,-5.85,-5.89,0,*52
1494277471.53,65304,15.13,72814.8,-5.21,-5.85,-5.89,0,*5E
1494277472.8,65305,15.13,72812.0,-5.19,-5.89,-5.85,0,*54
1494277474.06,65306,15.13,72812.8,-5.21,-5.85,-5.85,0,*50
1494277475.28,65307,15.13,72814.3,-5.19,-5.97,-5.97,0,*5A
1494277476.5,65308,15.13,72812.5,-5.19,-6.01,-6.01,0,*55
1494277477.72,65309,15.13,72806.0,-5.19,-6.01,-6.01,0,*54
1494277478.94,65310,15.13,72810.3,-5.19,-6.13,-6.05,0,*5B
1494277480.16,65311,15.13,72806.0,-5.19,-6.13,-6.13,0,*5D
1494277481.38,65312,15.13,72808.3,-5.19,-6.05,-6.01,0,*5A
1494277482.6,65313,15.13,72810.3,-5.19,-6.05,-6.01,0,*5B
1494277483.82,65314,15.13,72810.3,-5.19,-6.05,-6.01,0,*5C
1494277485.01,65315,15.13,72814.8,-5.21,-6.01,-5.97,0,*5E
1494277486.26,65316,15.13,72816.8,-5.19,-6.13,-6.19,0,*50
1494277487.52,65317,15.13,72808.8,-5.21,-6.19,-6.19,0,*50
1494277488.77,65318,15.13,72808.8,-5.19,-6.13,-6.19,0,*5E
1494277490.0,65319,15.13,72810.5,-5.21,-6.13,-6.19,0,*54
1494277491.19,65320,15.13,72808.8,-5.21,-6.05,-6.05,0,*54
1494277492.38,65321,15.13,72808.0,-5.21,-6.05,-6.05,0,*55
1494277493.58,65322,15.13,72816.0,-5.21,-6.05,-5.97,0,*5E
1494277494.8,65323,15.13,72808.5,-5.19,-6.05,-6.01,0,*58
1494277496.07,65324,15.13,72804.3,-5.19,-6.27,-6.19,0,*56
1494277497.26,65325,15.13,72806.8,-5.21,-6.13,-6.05,0,*56
1494277498.46,65326,15.13,72800.5,-5.21,-6.05,-6.05,0,*52
1494277499.65,65327,15.13,72804.0,-5.21,-6.05,-6.01,0,*57
1494277500.85,65328,15.13,72808.3,-5.21,-6.01,-5.97,0,*50
1494277502.08,65329,15.13,72804.5,-5.21,-5.97,-5.89,0,*52
1494277503.31,65330,15.13,72806.5,-5.21,-5.97,-5.89,0,*5A
1494277504.54,65331,15.13,72810.0,-5.21,-6.01,-5.85,0,*5B
1494277505.73,65332,15.13,72802.5,-5.21,-6.01,-5.97,0,*5B
1494277506.93,65333,15.13,72806.0,-5.21,-6.05,-6.05,0,*56
1494277508.17,65334,15.13,72806.0,-5.21,-6.27,-6.27,0,*51
1494277509.37,65335,15.13,72802.3,-5.21,-6.31,-6.39,0,*58
1494277510.57,65336,15.13,72804.0,-5.25,-6.43,-6.43,0,*57
1494277511.77,65337,15.13,72802.5,-5.25,-6.47,-6.47,0,*56
1494277512.98,65338,15.13,72802.0,-5.25,-6.43,-6.35,0,*58
1494277514.18,65339,15.13,72794.8,-5.25,-6.35,-6.35,0,*58
1494277515.46,65340,15.13,72796.0,-5.27,-6.19,-6.19,0,*54
1494277516.68,65341,15.13,72796.8,-5.27,-6.09,-6.09,0,*55
1494277517.91,65342,15.13,72800.3,-5.27,-6.09,-6.09,0,*56
1494277519.1,65343,15.13,72796.3,-5.25,-6.09,-6.05,0,*59
1494277520.3,65344,15.13,72800.0,-5.25,-6.09,-6.09,0,*52
1494277521.53,65345,15.13,72802.5,-5.27,-6.09,-6.09,0,*51
1494277522.72,65346,15.13,72798.3,-5.25,-6.05,-6.01,0,*54
1494277523.92,65347,15.13,72802.5,-5.25,-6.01,-6.01,0,*51
1494277525.12,65348,15.13,72800.5,-5.25,-6.01,-6.01,0,*5E
1494277526.31,65349,15.13,72802.0,-5.25,-6.05,-6.01,0,*5B
1494277527.54,65350,15.13,72800.8,-5.25,-6.01,-5.93,0,*5F
1494277528.73,65351,15.13,72800.3,-5.25,-6.05,-6.01,0,*52
1494277529.96,65352,15.13,72800.8,-5.27,-6.01,-6.01,0,*57
1494277531.15,65353,15.13,72800.0,-5.25,-6.05,-6.05,0,*54
1494277532.37,65354,15.13,72796.5,-5.27,-6.05,-6.05,0,*51
1494277533.6,65355,15.13,72798.0,-5.25,-6.01,-5.89,0,*51
1494277534.85,65356,15.13,72798.5,-5.25,-5.93,-5.93,0,*51
1494277536.11,65357,15.13,72800.0,-5.25,-5.93,-5.89,0,*5B
1494277537.37,65358,15.13,72802.0,-5.25,-5.93,-5.89,0,*54
1494277538.62,65359,15.13,72798.8,-5.25,-5.93,-5.89,0,*55
1494277539.88,65360,15.13,72802.5,-5.25,-5.89,-5.81,0,*5C
1494277541.13,65361,15.13,72804.3,-5.25,-5.89,-5.89,0,*55
1494277542.39,65362,15.13,72800.8,-5.25,-5.93,-5.93,0,*56
1494277543.61,65363,15.13,72800.3,-5.25,-6.01,-5.93,0,*5F
1494277544.87,65364,15.13,72790.5,-5.25,-5.93,-5.93,0,*50
1494277546.12,65365,15.13,72796.0,-5.25,-5.93,-5.93,0,*51
1494277547.38,65366,15.13,72798.3,-5.25,-5.89,-5.89,0,*52
1494277548.66,65367,15.13,72802.5,-5.27,-5.93,-5.89,0,*5A
1494277549.92,65368,15.13,72796.3,-5.25,-5.93,-5.89,0,*57
1494277551.17,65369,15.13,72796.8,-5.25,-5.89,-5.89,0,*5D
1494277552.4,65370,15.13,72792.3,-5.21,-5.97,-5.89,0,*5E
1494277553.6,65371,15.13,72798.5,-5.21,-6.01,-5.97,0,*5C
1494277554.8,65372,15.13,72798.5,-5.21,-5.97,-5.97,0,*53
1494277556.02,65373,15.13,72796.8,-5.21,-6.01,-5.89,0,*51
1494277557.22,65374,15.13,72800.3,-5.21,-5.97,-5.97,0,*55
1494277558.42,65375,15.13,72796.3,-5.25,-6.05,-6.01,0,*54
1494277559.61,65376,15.13,72798.5,-5.25,-6.01,-6.01,0,*53
1494277560.87,65377,15.13,72802.5,-5.25,-5.93,-5.89,0,*59
1494277562.13,65378,15.13,72798.5,-5.21,-5.85,-5.89,0,*55
1494277563.39,65379,15.13,72802.8,-5.21,-5.89,-5.85,0,*54
1494277564.64,65380,15.13,72806.3,-5.21,-5.89,-5.89,0,*5E
1494277565.9,65381,15.13,72808.5,-5.21,-5.89,-5.85,0,*53
1494277567.15,65382,15.13,72806.0,-5.21,-5.89,-5.89,0,*5C
1494277568.41,65383,15.13,72806.3,-5.21,-5.89,-5.85,0,*51
1494277569.66,65384,15.13,72810.0,-5.21,-5.89,-5.89,0,*5A
1494277570.91,65385,15.13,72810.3,-5.21,-5.89,-5.89,0,*5B
1494277572.17,65386,15.13,72810.3,-5.21,-5.89,-5.89,0,*58
1494277573.45,65387,15.13,72806.5,-5.19,-5.85,-5.89,0,*5E
1494277574.73,65388,15.13,72806.3,-5.19,-5.89,-5.89,0,*5D
1494277575.98,65389,15.13,72806.8,-5.21,-5.89,-5.89,0,*57
1494277577.24,65390,15.13,72806.8,-5.21,-5.89,-5.85,0,*53
1494277578.49,65391,15.13,72804.8,-5.21,-5.89,-5.85,0,*52
1494277579.75,65392,15.13,72804.0,-5.21,-5.89,-5.85,0,*51
1494277581.02,65393,15.13,72802.8,-5.27,-5.89,-5.93,0,*51
1494277582.28,65394,15.13,72802.0,-5.21,-5.89,-5.89,0,*5B
1494277583.53,65395,15.13,72802.3,-5.21,-5.85,-5.89,0,*56
1494277584.79,65396,15.13,72800.8,-5.21,-5.89,-5.85,0,*55
1494277586.07,65397,15.13,72800.5,-5.19,-5.89,-5.85,0,*5F
1494277587.33,65398,15.13,72802.8,-5.21,-5.85,-5.89,0,*5B
1494277588.61,65399,15.13,72800.5,-5.19,-5.85,-5.89,0,*51
1494277589.86,65400,15.13,72802.5,-5.21,-5.85,-5.89,0,*5D
1494277591.12,65401,15.13,72806.5,-5.21,-5.85,-5.85,0,*50
1494277592.38,65402,15.13,72802.5,-5.21,-5.85,-5.85,0,*53
1494277593.64,65403,15.13,72800.3,-5.21,-5.85,-5.85,0,*52
1494277594.9,65404,15.13,72802.8,-5.21,-5.85,-5.89,0,*59
1494277596.15,65405,15.13,72806.0,-5.21,-5.89,-5.85,0,*58
1494277597.38,65406,15.13,72810.5,-5.21,-5.89,-5.97,0,*58
1494277598.57,65407,15.13,72804.0,-5.21,-6.01,-5.97,0,*5A
1494277599.77,65408,15.13,72802.0,-5.21,-6.01,-6.01,0,*59
1494277600.97,65409,15.13,72798.5,-5.21,-6.05,-6.01,0,*5C
1494277602.16,65410,15.13,72802.5,-5.21,-5.97,-5.97,0,*50
1494277603.39,65411,15.13,72804.0,-5.21,-6.01,-5.89,0,*52
1494277604.67,65412,15.13,72800.0,-5.19,-5.89,-5.89,0,*59
1494277605.92,65413,15.13,72802.8,-5.21,-5.89,-5.89,0,*53
1494277607.18,65414,15.13,72802.3,-5.21,-5.89,-5.89,0,*54
1494277608.46,65415,15.13,72800.3,-5.19,-5.85,-5.89,0,*52
1494277609.71,65416,15.13,72802.5,-5.21,-5.89,-5.89,0,*56
1494277610.99,65417,15.13,72802.5,-5.19,-5.85,-5.85,0,*5C
1494277612.22,65418,15.13,72800.8,-5.21,-5.97,-5.89,0,*57
1494277613.48,65419,15.13,72800.3,-5.19,-5.97,-5.85,0,*51
1494277614.7,65420,15.13,72806.8,-5.21,-5.97,-5.89,0,*5C
1494277615.9,65421,15.13,72804.3,-5.21,-6.01,-6.01,0,*52
1494277617.12,65422,15.13,72806.0,-5.19,-6.01,-6.01,0,*5A
1494277618.32,65423,15.13,72804.3,-5.21,-5.97,-6.01,0,*5C
1494277619.52,65424,15.13,72800.5,-5.21,-6.01,-6.01,0,*57
1494277620.72,65425,15.13,72802.5,-5.21,-6.01,-5.97,0,*5A
1494277621.91,65426,15.13,72802.0,-5.21,-6.01,-5.97,0,*59
1494277623.17,65427,15.13,72802.5,-5.19,-5.97,-5.85,0,*5C
1494277624.42,65428,15.13,72804.5,-5.25,-5.89,-5.89,0,*5F
1494277625.65,65429,15.13,72810.5,-5.21,-5.97,-5.89,0,*55
1494277626.85,65430,15.13,72808.8,-5.21,-6.01,-5.97,0,*5E
1494277628.04,65431,15.13,72808.0,-5.21,-6.01,-5.97,0,*5F
1494277629.24,65432,15.13,72804.8,-5.21,-6.13,-6.13,0,*50
1494277630.44,65433,15.13,72804.5,-5.21,-6.13,-6.05,0,*56
1494277631.63,65434,15.13,72800.8,-5.21,-6.05,-6.05,0,*56
1494277632.83,65435,15.13,72804.5,-5.21,-6.05,-6.01,0,*53
1494277634.07,65436,15.13,72802.8,-5.25,-6.19,-6.23,0,*59
1494277635.32,65437,15.13,72796.3,-5.21,-6.27,-6.27,0,*55
1494277636.52,65438,15.13,72796.5,-5.25,-6.35,-6.35,0,*5E
1494277637.73,65439,15.13,72806.0,-5.21,-6.31,-6.31,0,*5B
1494277638.93,65440,15.13,72798.8,-5.25,-6.43,-6.43,0,*51
1494277640.13,65441,15.13,72788.5,-5.25,-6.47,-6.55,0,*53
1494277641.33,65442,15.13,72786.3,-5.25,-6.55,-6.47,0,*50
1494277642.56,65443,15.13,72782.8,-5.27,-6.47,-6.47,0,*50
1494277643.83,65444,15.13,72786.5,-5.27,-6.23,-6.19,0,*5E
1494277645.06,65445,15.13,72790.8,-5.27,-6.09,-6.09,0,*56
1494277646.28,65446,15.13,72798.3,-5.27,-6.09,-6.05,0,*59
1494277647.49,65447,15.13,72802.0,-5.27,-6.05,-6.05,0,*54
1494277648.69,65448,15.13,72802.5,-5.25,-6.05,-6.01,0,*5D
1494277649.91,65449,15.13,72800.5,-5.27,-6.01,-6.01,0,*5A
1494277651.13,65450,15.13,72802.3,-5.27,-6.01,-6.01,0,*52
1494277652.35,65451,15.13,72804.5,-5.27,-6.01,-6.01,0,*53
1494277653.57,65452,15.13,72804.5,-5.27,-6.05,-6.05,0,*50
1494277654.76,65453,15.13,72802.0,-5.25,-6.05,-6.05,0,*53
1494277655.96,65454,15.13,72806.8,-5.25,-6.05,-6.05,0,*54
1494277657.15,65455,15.13,72806.5,-5.25,-6.01,-6.05,0,*51
1494277658.41,65456,15.13,72802.8,-5.27,-6.01,-5.93,0,*5C
1494277659.65,65457,15.13,72804.0,-5.27,-6.01,-5.93,0,*5D
1494277660.9,65458,15.13,72802.0,-5.27,-6.01,-5.93,0,*52
1494277662.15,65459,15.13,72806.8,-5.27,-6.01,-5.93,0,*53
1494277663.38,65460,15.13,72802.5,-5.27,-6.01,-6.01,0,*51
1494277664.6,65461,15.13,72802.3,-5.27,-6.01,-6.01,0,*50
1494277665.82,65462,15.13,72808.0,-5.27,-6.01,-6.01,0,*53
1494277667.07,65463,15.13,72810.5,-5.27,-5.93,-6.01,0,*5A
1494277668.29,65464,15.13,72808.0,-5.27,-6.01,-6.01,0,*55
1494277669.57,65465,15.13,72804.0,-5.27,-5.93,-5.93,0,*54
1494277670.78,65466,15.13,72804.8,-5.27,-6.05,-6.05,0,*57
1494277671.98,65467,15.13,72810.0,-5.25,-6.01,-6.01,0,*54
1494277673.18,65468,15.13,72806.3,-5.25,-6.05,-6.05,0,*5B
1494277674.39,65469,15.13,72810.0,-5.27,-6.05,-6.05,0,*58
1494277675.59,65470,15.13,72812.3,-5.25,-6.05,-6.05,0,*52
1494277676.78,65471,15.13,72808.5,-5.29,-6.05,-6.05,0,*5F
1494277677.98,65472,15.13,72814.5,-5.29,-6.05,-5.97,0,*54
1494277679.18,65473,15.13,72810.0,-5.25,-6.01,-6.05,0,*55
1494277680.38,65474,15.06,72806.8,-5.25,-6.01,-6.01,0,*56
1494277681.63,65475,15.13,72810.8,-5.27,-6.01,-5.89,0,*56
1494277682.87,65476,15.13,72810.0,-5.27,-6.05,-5.93,0,*5A
1494277684.1,65477,15.06,72806.0,-5.27,-6.01,-6.01,0,*57
1494277685.32,65478,15.13,72812.3,-5.25,-6.01,-5.93,0,*52
1494277686.55,65479,15.13,72808.5,-5.25,-5.93,-6.01,0,*53
1494277687.78,65480,15.13,72810.3,-5.25,-6.01,-5.93,0,*55
1494277688.99,65481,15.13,72808.0,-5.27,-6.05,-6.01,0,*5A
1494277690.21,65482,15.13,72806.3,-5.27,-6.05,-6.05,0,*5D
1494277691.43,65483,15.13,72808.3,-5.27,-6.09,-6.09,0,*5C
1494277692.66,65484,15.13,72804.8,-5.27,-6.09,-6.09,0,*5B
1494277693.88,65485,15.13,72806.8,-5.27,-6.09,-6.09,0,*5A
1494277695.1,65486,15.13,72802.5,-5.27,-6.01,-6.09,0,*51
1494277696.32,65487,15.13,72810.3,-5.27,-6.01,-6.01,0,*58
1494277697.57,65488,15.13,72798.3,-5.27,-6.01,-5.93,0,*5F
1494277698.79,65489,15.13,72796.5,-5.27,-6.05,-6.05,0,*56
1494277700.01,65490,15.13,72794.0,-5.27,-6.01,-6.01,0,*5E
1494277701.26,65491,15.13,72800.0,-5.27,-6.01,-5.93,0,*57
1494277702.51,65492,15.13,72798.5,-5.27,-6.01,-5.93,0,*54
1494277703.79,65493,15.13,72790.5,-5.27,-5.93,-5.93,0,*5D
1494277705.04,65494,15.13,72800.0,-5.27,-6.01,-5.89,0,*59
1494277706.3,65495,15.13,72806.8,-5.27,-6.01,-5.89,0,*58
1494277707.52,65496,15.13,72794.3,-5.27,-6.01,-6.01,0,*58
1494277708.71,65497,15.13,72786.8,-5.25,-6.05,-6.05,0,*5B
1494277709.93,65498,15.13,72790.5,-5.27,-6.09,-6.09,0,*56
1494277711.16,65499,15.13,72794.3,-5.27,-6.09,-6.09,0,*57